Flag Weather past 2 weeks in Knarrevik/Straume, Norway

Now
52 °F

Overcast.


Feels Like: 49 °F
Forecast: 50 / 57 °F
Wind: 7 mph from Southeast

Location: Bergen / Flesland

Current Time: Oct 31, 2014 at 5:33:03 PM

Latest Report: Oct 31, 2014 at 4:00 PM


Visibility: 31 mi

Pressure: 29.94 "Hg

Humidity: 84%

Dew point: 47 °F

Location of Knarrevik/StraumeLocation

Historic Weather in Knarrevik/Straume — Graph

°F

Knarrevik/Straume temperature yesterday

Maximum temperature yesterday: 46 °F (at 2:00 PM)
Minimum temperature yesterday: 38 °F (at 6:00 AM)
Average temperature yesterday: 42 °F

Past Weeks' High & Low Weather Summary

 TemperatureHumidityPressure
High56 °F (Oct 18, 7:00 PM)98% (Oct 27, 3:00 PM)30.20 "Hg (Oct 27, 3:00 PM)
Low35 °F (Oct 17, 7:00 AM)43% (Oct 16, 6:00 PM)29.18 "Hg (Oct 21, 3:00 PM)
Average49 °F84%29.70 "Hg
* Reported Oct 16 5:00 PM — Oct 31 4:00 PM, Knarrevik/Straume, Weather by CustomWeather, © 2014

Note: Actual official high and low records may vary slightly from our data, if they occured in-between our weather recording intervals... More about our weather records

Advertising

Knarrevik/Straume weather history for previous 24 hours

 ConditionsComfort  
Time TempWeatherWind HumidityBarometerVisibility
4:00 PM
Oct 31
52 °FOvercast.7 mph84%29.94 "Hg31 mi
3:00 PM50 °FDrizzle. Overcast.8 mph89%29.96 "Hg14 mi
2:00 PM50 °FLight rain. Overcast.8 mph89%29.97 "Hg11 mi
1:00 PM49 °FLight rain. Overcast.6 mph90%29.99 "Hg7 mi
12:00 PM48 °FRain. Overcast.5 mph91%30.01 "Hg8 mi
11:00 AM47 °FLight rain. Overcast.5 mph90%30.02 "Hg8 mi
10:00 AM46 °FRain. Overcast.2 mph96%30.03 "Hg5 mi
9:00 AM45 °FRain. Overcast.2 mph93%30.03 "Hg4 mi
8:00 AM45 °FRain. Overcast.1 mph91%30.04 "Hg4 mi
7:00 AM46 °FLight rain. Overcast.2 mph84%30.05 "Hg9 mi
6:00 AM46 °FOvercast.1 mph78%30.06 "Hg31 mi
5:00 AM45 °FOvercast.1 mph75%30.07 "Hg31 mi
4:00 AM45 °FOvercast.2 mph71%30.08 "Hg31 mi
3:00 AM44 °FOvercast.2 mph78%30.09 "Hg28 mi
2:00 AM45 °FOvercast.1 mph72%30.11 "Hg31 mi
1:00 AM46 °FOvercast.2 mph64%30.13 "Hg31 mi
12:00 AM45 °FOvercast.2 mph72%30.14 "Hg31 mi
11:00 PM
Oct 30
44 °FOvercast.1 mph81%30.15 "Hg31 mi
10:00 PM43 °FOvercast.3 mph79%30.16 "Hg31 mi
9:00 PM44 °FOvercast.2 mph80%30.18 "Hg28 mi
8:00 PM44 °FOvercast.3 mph76%30.18 "Hg28 mi
7:00 PM44 °FOvercast.5 mph77%30.18 "Hg25 mi
6:00 PM43 °FDrizzle. Overcast.3 mph85%30.19 "Hg22 mi
5:00 PM44 °FRain showers. Overcast.2 mph81%30.19 "Hg14 mi
Weather by CustomWeather, © 2014

See weather overviewHow to use our weather pages